EW2522 Weather Reports


time (UTC)temp
C
wind
direction
speed
KPH
gust
KPH
rain 1hr
cm
rain 24hr
cm
rain mn
cm
humidity
%
barometer
mb
20260506103442 10 216 11.3 32.2 0.00 0.00 0.00 35 1009.5
20260506102542 10 241 4.8 19.3 0.00 0.00 0.00 37 1009.4
20260506101642 10 264 3.2 14.5 0.00 0.00 0.00 37 1009.4
20260506100743 10 226 6.4 27.4 0.00 0.00 0.00 38 1009.4
20260506095843 9 206 8.0 22.5 0.00 0.00 0.00 40 1009.2
20260506094942 8 210 8.0 22.5 0.00 0.00 0.00 40 1009.2
20260506094043 8 223 8.0 29.0 0.00 0.00 0.00 41 1009.2
20260506093142 8 223 11.3 29.0 0.00 0.00 0.00 41 1009.1
20260506092242 8 240 6.4 25.7 0.00 0.00 0.00 40 1009.1
20260506091342 8 243 8.0 22.5 0.00 0.00 0.00 42 1009.0
20260506090443 8 239 8.0 22.5 0.00 0.00 0.00 41 1009.0
20260506085542 8 238 4.8 25.7 0.00 0.00 0.00 44 1008.8
20260506084853 8 257 4.8 17.7 0.00 0.00 0.00 45 1008.8
20260506083742 7 266 3.2 12.9 0.00 0.00 0.00 46 1008.7
20260506082842 7 242 8.0 27.4 0.00 0.00 0.00 44 1008.7
20260506082155 7 247 3.2 27.4 0.00 0.00 0.00 45 1008.7
20260506081042 7 236 6.4 22.5 0.00 0.00 0.00 45 1008.6
20260506080142 7 251 4.8 19.3 0.00 0.00 0.00 48 1008.5
20260506072543 6 240 3.2 17.7 0.00 0.00 0.00 49 1008.4
20260506071642 6 243 8.0 22.5 0.00 0.00 0.00 50 1008.3
20260506070742 6 260 6.4 22.5 0.00 0.00 0.00 50 1008.2
20260506062243 5 239 6.4 19.3 0.00 0.05 0.00 63 1007.6
20260506061342 5 241 8.0 20.9 0.00 0.05 0.00 65 1007.6
20260506060442 5 221 6.4 22.5 0.00 0.08 0.00 64 1007.5
20260506051042 3 256 6.4 19.3 0.00 0.08 0.00 69 1007.1
20260506050142 3 245 3.2 14.5 0.00 0.08 0.00 70 1007.1
20260506044342 3 242 4.8 16.1 0.00 0.08 0.00 73 1007.0
20260506043443 3 260 4.8 16.1 0.00 0.08 0.00 74 1006.9
20260506042543 2 240 6.4 16.1 0.00 0.08 0.00 75 1006.9
20260506041642 2 247 3.2 11.3 0.00 0.08 0.00 76 1006.7
20260506040742 2 253 6.4 17.7 0.00 0.08 0.00 76 1006.7
20260506035842 2 230 6.4 14.5 0.00 0.08 0.00 77 1006.6
20260506034942 1 234 3.2 14.5 0.00 0.08 0.00 77 1006.5
20260506034042 1 237 4.8 14.5 0.00 0.08 0.00 77 1006.5
20260506033143 1 214 4.8 14.5 0.00 0.08 0.00 78 1006.3
20260506032453 1 244 3.2 12.9 0.00 0.08 0.00 78 1006.3
20260506031342 1 228 3.2 12.9 0.00 0.08 0.00 79 1006.2
20260506030442 1 246 4.8 12.9 0.00 0.08 0.00 79 1006.1
20260506025755 1 235 4.8 12.9 0.00 0.08 0.00 79 1006.0
20260506024642 1 254 6.4 12.9 0.00 0.08 0.00 79 1005.9
20260506023743 1 232 4.8 14.5 0.00 0.08 0.00 78 1005.8
20260506022843 1 224 6.4 12.9 0.00 0.08 0.00 78 1005.7
20260506022155 1 223 4.8 12.9 0.00 0.08 0.00 78 1005.6
20260506021043 1 251 6.4 16.1 0.00 0.08 0.00 77 1005.5
20260506020142 1 199 6.4 14.5 0.00 0.08 0.00 77 1005.4
20260506015456 1 220 4.8 14.5 0.00 0.08 0.00 76 1005.4
20260506014343 1 295 4.8 12.9 0.00 0.08 0.00 75 1005.4
20260506013442 1 241 4.8 14.5 0.00 0.08 0.00 75 1005.3
20260506012542 1 235 4.8 11.3 0.00 0.08 0.00 74 1005.3
20260506011642 1 31 1.6 8.0 0.00 0.08 0.00 74 1005.2
20260506010743 1 48 4.8 11.3 0.00 0.08 0.00 73 1005.2
20260506005843 1 231 1.6 9.7 0.00 0.08 0.00 72 1005.2
20260506004942 1 0 0.0 4.8 0.00 0.08 0.00 71 1005.1
20260506004042 1 256 1.6 6.4 0.00 0.08 0.00 71 1004.9
20260506003352 1 242 1.6 6.4 0.00 0.08 0.00 70 1004.9
20260506002455 1 4 1.6 6.4 0.00 0.08 0.00 70 1004.8
20260506001343 2 34 1.6 8.0 0.00 0.08 0.00 69 1004.8
20260506000442 2 216 1.6 11.3 0.00 0.08 0.00 69 1004.7
20260505235542 2 219 1.6 9.7 0.00 0.08 0.00 68 1004.7
20260505234642 2 245 1.6 9.7 0.00 0.08 0.00 68 1004.7
20260505233742 2 248 1.6 14.5 0.00 0.08 0.00 67 1004.6
20260505232843 2 229 1.6 9.7 0.00 0.08 0.00 66 1004.6
20260505231942 2 229 1.6 11.3 0.00 0.08 0.00 66 1004.6
20260505231042 2 231 1.6 6.4 0.00 0.08 0.00 65 1004.6
20260505225242 2 206 1.6 9.7 0.00 0.08 0.00 64 1004.5
20260505224554 3 233 1.6 9.7 0.00 0.08 0.00 63 1004.4
20260505223442 3 238 3.2 12.9 0.00 0.08 0.00 62 1004.5
20260505222543 3 246 3.2 11.3 0.00 0.08 0.00 62 1004.5
20260505221857 3 245 3.2 11.3 0.00 0.08 0.00 61 1004.4
20260505220742 3 241 1.6 14.5 0.00 0.08 0.00 61 1004.4
20260505220056 3 0 0.0 6.4 0.00 0.08 0.00 61 1004.4
20260505214943 3 230 1.6 14.5 0.00 0.08 0.00 61 1004.3
20260505214042 3 244 1.6 4.8 0.00 0.08 0.00 60 1004.3
20260505213143 2 217 1.6 6.4 0.00 0.08 0.00 60 1004.1
20260505212456 2 228 1.6 6.4 0.00 0.08 0.00 61 1004.1
20260505211343 2 0 0.0 6.4 0.00 0.08 0.00 62 1004.1
20260505210442 2 212 1.6 4.8 0.00 0.08 0.00 63 1003.9
20260505205543 2 0 0.0 4.8 0.00 0.08 0.08 64 1003.8
20260505204642 2 0 0.0 4.8 0.00 0.08 0.08 64 1003.7
20260505203742 1 0 0.0 1.6 0.00 0.08 0.08 65 1003.6
20260505202843 2 0 0.0 0.0 0.00 0.08 0.08 66 1003.6
20260505201942 2 0 0.0 0.0 0.00 0.08 0.08 66 1003.5
20260505201042 2 0 0.0 3.2 0.00 0.08 0.08 66 1003.4
20260505200357 2 0 0.0 3.2 0.00 0.08 0.08 66 1003.4
20260505195242 2 0 0.0 0.0 0.00 0.08 0.08 63 1003.3
20260505194343 3 0 0.0 1.6 0.00 0.08 0.08 63 1003.3
20260505193442 3 0 0.0 0.0 0.00 0.08 0.08 61 1003.3
20260505192542 3 0 0.0 0.0 0.00 0.08 0.08 60 1003.2
20260505191645 4 0 0.0 0.0 0.00 0.08 0.08 58 1003.1
20260505190956 5 0 0.0 0.0 0.00 0.08 0.08 57 1003.2
20260505185845 5 0 0.0 0.0 0.00 0.08 0.08 54 1003.1
20260505184942 5 0 0.0 0.0 0.00 0.08 0.08 52 1003.1
20260505184043 6 0 0.0 0.0 0.00 0.08 0.08 51 1003.0
20260505183142 6 0 0.0 0.0 0.00 0.08 0.08 48 1002.9
20260505182242 7 0 0.0 0.0 0.00 0.08 0.08 45 1002.8
20260505181343 7 0 0.0 0.0 0.00 0.08 0.08 44 1002.7
20260505180442 7 0 0.0 0.0 0.00 0.08 0.08 43 1002.7
20260505175542 7 0 0.0 0.0 0.00 0.08 0.08 42 1002.6
20260505174642 8 0 0.0 0.0 0.00 0.08 0.08 41 1002.5
20260505173954 8 0 0.0 6.4 0.00 0.08 0.08 40 1002.4
20260505172842 8 0 0.0 1.6 0.00 0.08 0.08 38 1002.3
20260505171942 8 280 1.6 9.7 0.00 0.08 0.08 37 1002.2
20260505171256 8 268 3.2 14.5 0.00 0.08 0.08 36 1002.2
20260505170142 8 255 3.2 17.7 0.00 0.08 0.08 36 1002.1
20260505165242 9 0 0.0 6.4 0.00 0.08 0.08 35 1002.0
20260505164342 9 250 4.8 16.1 0.00 0.08 0.08 35 1002.0
20260505163443 9 232 3.2 17.7 0.00 0.08 0.08 35 1001.9
20260505162542 9 236 4.8 24.1 0.00 0.08 0.08 34 1001.9
20260505161642 9 234 6.4 17.7 0.00 0.08 0.08 36 1001.8
20260505160742 9 238 9.7 27.4 0.00 0.08 0.08 36 1001.7
20260505153142 9 228 4.8 16.1 0.00 0.08 0.08 36 1001.4
20260505152242 9 232 6.4 24.1 0.00 0.08 0.08 35 1001.4
20260505151343 9 242 6.4 22.5 0.00 0.08 0.08 37 1001.3
20260505150442 9 191 1.6 9.7 0.00 0.08 0.08 38 1001.2
20260505140142 8 209 8.0 19.3 0.00 0.08 0.08 46 1000.8
20260505124942 8 269 3.2 14.5 0.00 0.08 0.08 44 1000.5
20260505124042 9 288 3.2 17.7 0.00 0.08 0.08 43 1000.4
20260505123142 9 261 8.0 24.1 0.00 0.08 0.08 47 1000.3
20260505122243 8 239 9.7 25.7 0.00 0.08 0.08 52 1000.5
20260505121343 8 195 9.7 30.6 0.00 0.08 0.08 55 999.9
20260505120442 8 207 9.7 20.9 0.00 0.08 0.08 56 999.9
20260505115542 8 230 8.0 20.9 0.00 0.08 0.08 55 999.9
20260505114856 7 225 8.0 20.9 0.00 0.08 0.08 58 999.9
20260505113742 7 245 6.4 20.9 0.00 0.08 0.08 58 999.9
20260505112842 8 273 4.8 16.1 0.00 0.08 0.08 55 999.9
20260505111942 8 219 6.4 19.3 0.00 0.08 0.08 57 999.7
20260505111042 8 229 8.0 24.1 0.00 0.08 0.08 60 999.5
20260505110142 7 231 8.0 24.1 0.00 0.08 0.08 61 999.6